Regional Weather Roundup
Issued by NWS

Home | Current Version | Previous Version | Graphics & Text | Print | Product List | Glossary On
Versions: 1 2 3 4 5 6 7 8 9 10 11 12 13 14 15 16 17 18 19 20 21 22 23 24 25 26 27 28 29 30 31 32 33 34 35 36 37 38 39 40 41 42 43 44 45 46 47 48 49 50
000
ASUS43 KLOT 221803
RWRIL

ILLINOIS REGIONAL WEATHER ROUNDUP
NATIONAL WEATHER SERVICE CHICAGO/ROMEOVILLE IL
100 PM CDT SAT APR 22 2017

NOTE: "FAIR" INDICATES FEW OR NO CLOUDS BELOW 12,000 FEET WITH NO
SIGNIFICANT WEATHER AND/OR OBSTRUCTIONS TO VISIBILITY.

* THESE STATIONS ARE NOT UNDER NWS QUALITY CONTROL. THEY ALSO MAY NOT
  REPORT WEATHER SUCH AS PRECIPITATION OR FOG.

ILZ001-002-007-009-015-016-024-221900-
NORTHWEST ILLINOIS

CITY           SKY/WX    TMP DP  RH WIND       PRES   REMARKS
MOLINE         SUNNY     60  33  36 E13G23    30.20F
6HR MIN TEMP:  44; 6HR MAX TEMP:  60;

STERLING*      SUNNY     59  35  40 E10G20    30.20F
SAVANNA*       SUNNY     60  32  35 E8        30.21F
$$

ILZ003-004-008-010-011-017-018-221900-
NORTH CENTRAL ILLINOIS

CITY           SKY/WX    TMP DP  RH WIND       PRES   REMARKS
ROCKFORD       MOSUNNY   61  32  33 NE14      30.21F
6HR MIN TEMP:  41; 6HR MAX TEMP:  61;

FREEPORT*      SUNNY     58  31  35 NE15      30.22F
ROCHELLE*      SUNNY     58  34  40 NE13G21   30.21S
DE KALB*       SUNNY     59  30  32 NE13G18   30.20F
PERU*          SUNNY     58  32  38 E16G23    30.18F
$$

ILZ005-006-012>014-019>023-221900-
NORTHEAST ILLINOIS

CITY           SKY/WX    TMP DP  RH WIND       PRES   REMARKS
CHICAGO-OHARE  PTSUNNY   56  26  31 NE13      30.20F
6HR MIN TEMP:  43; 6HR MAX TEMP:  56;

CHICAGO-MIDWAY PTSUNNY   56  29  35 NE16G23   30.20S
6HR MIN TEMP:  46; 6HR MAX TEMP:  56;

AURORA         SUNNY     58  26  29 NE18G24   30.20F
6HR MIN TEMP:  39; 6HR MAX TEMP:  58;

LANSING*       SUNNY     53  36  51 N10G16    30.19F
JOLIET*        SUNNY     59  30  32 NE13G18   30.18F
WAUKEGAN       SUNNY     53  29  39 NE10      30.21F
6HR MIN TEMP:  41; 6HR MAX TEMP:  53;

DUPAGE AIRPORT CLOUDY    57  29  34 NE13      30.19F
6HR MIN TEMP:  37; 6HR MAX TEMP:  58;

KANKAKEE*      PTSUNNY   56  31  38 NE15G23   30.17S
WHEELING       SUNNY     54  28  36 NE14      30.22F
6HR MIN TEMP:  42; 6HR MAX TEMP:  54;

MORRIS*        SUNNY     60  31  34 NE8G16    30.16F
NORTHERLY ISL    N/A     49  33  54 N15         N/A
$$

LMZ740>746-221900-
SOUTHERN LAKE MICHIGAN

STATION/POSITION SKY/WX   TEMP    WIND        PRES    VSBY  WAVE
                          AIR SEA DIR/SP/G                  HT/PER
                          (F)     (DEG/KT/KT) (MB)    (MI)  (FT/S)
HARRISON CRIB              44      10/ 15/ 17   N/A
BURNHAM HARBOR             48     360/ 10/ 14   N/A
CALUMET HARBOR             47     350/ 12/ 19 1022.4S
BURNS HARBOR               43     360/ 13/ 15 1023.0F
MICHIGAN CITY              44     350/ 13/ 14   N/A
ST. JOSEPH                 44 49   20/ 14/ 16 1023.1F         2/ 3
$$

ILZ025>027-034>036-040-047-049-050-058-095>099-221900-
WEST-CENTRAL ILLINOIS

CITY           SKY/WX    TMP DP  RH WIND       PRES   REMARKS
QUINCY         PTSUNNY   58  36  43 NE16G24   30.13F
GALESBURG*     SUNNY     59  37  44 NE15G22   30.17F
MACOMB*        SUNNY     59  37  42 E13G21    30.19S
JACKSONVILLE*  MOSUNNY   58  37  45 NE24      30.12F
PITTSFIELD*    MOSUNNY   57  38  49 NE16G22   30.13S
$$

ILZ028>032-037-038-041>044-048-051>054-059>061-221900-
CENTRAL ILLINOIS

CITY           SKY/WX    TMP DP  RH WIND       PRES   REMARKS
PONTIAC        MOSUNNY   56  33  42 E17       30.17F
BLOOMINGTON    MOSUNNY   59  33  37 E23       30.15F
DECATUR        CLOUDY    55  38  52 NE24      30.11S
PEORIA         SUNNY     59  37  44 E14G24    30.17F
6HR MIN TEMP:  44; 6HR MAX TEMP:  59;

LACON*         SUNNY     60  36  40 NE13G20   30.17S
LINCOLN*       MOSUNNY   58  39  49 E16G23    30.14S
SPRINGFIELD    MOSUNNY   62  39  42 NE24G31   30.11F
6HR MIN TEMP:  46; 6HR MAX TEMP:  62;

TAYLORVILLE    PTSUNNY   53  37  53 NE20G28   30.10F
6HR MIN TEMP:  44; 6HR MAX TEMP:  53;

$$

ILZ033-039-045-046-055>057-062-063-221900-
EAST-CENTRAL ILLINOIS

CITY           SKY/WX    TMP DP  RH WIND       PRES   REMARKS
CHAMPAIGN      PTSUNNY   58  35  42 NE22G30   30.11F
RANTOUL*       MOSUNNY   60  35  39 NE17G32   30.12F
MATTOON        CLOUDY    51  38  60 NE22G30   30.09S
PARIS*         CLOUDY    52  37  56 E20       30.10F
$$

ILZ079-100>102-221900-
SOUTHWEST ILLINOIS

CITY           SKY/WX    TMP DP  RH WIND       PRES   REMARKS
ALTON            N/A     54  39  58 NE15G22   30.09F
BELLEVILLE     CLOUDY    54  42  66 N16       30.05F
CAHOKIA*       MOSUNNY   54  40  59 NE13      30.07F
SPARTA*        CLOUDY    49  45  84 N10       30.06S
$$

ILZ064>066-069>071-074>076-080>082-084>086-088>090-092>094-221900-
SOUTH-CENTRAL ILLINOIS

CITY           SKY/WX    TMP DP  RH WIND       PRES   REMARKS
CARBONDALE     LGT RAIN  50  48  93 NE9       30.01F
6HR MIN TEMP:  45; 6HR MAX TEMP:  50; 6HR PCP:  0.23;

CAIRO*         RAIN      49  48  94 NE15      29.97S
EFFINGHAM*     PTSUNNY   54  42  64 NE13G20   30.10R
MARION         LGT RAIN  52  52 100 NE12      30.01F
MT. VERNON     CLOUDY    52  43  71 NE15      30.05S
CENTRALIA*     CLOUDY    52  44  73 NE7       30.05S
SALEM*         CLOUDY    53  43  67 NE9       30.07R
METROPOLIS*    RAIN      49  47  93 NE7       29.98S
$$

ILZ067-068-072-073-078-083-087-091-221900-
SOUTHEAST ILLINOIS

CITY           SKY/WX    TMP DP  RH WIND       PRES   REMARKS
LAWRENCEVILLE  CLOUDY    54  43  66 NE16G22   30.07S
FLORA*         CLOUDY    54  42  65 NE14G20   30.06F
FAIRFIELD*     LGT RAIN  51  45  79 N8        30.04S
HARRISBURG*    DRIZZLE   52  48  88 NE12G20   30.01F
ROBINSON*      CLOUDY    52  42  67 NE20G25   30.08S
CARMI*         LGT RAIN  50  46  86 NE15      30.03S
$$

ABBREVIATIONS USED IN REMARKS
   TC - TEMPERATURE IN CELSIUS
  WCI - WIND CHILL INDEX
   HX - HEAT INDEX
  VSB - VISIBILITY
$$





USA.gov is the U.S. government's official web portal to all federal, state and local government web resources and services.